Flag for Germany Weather for the Past 2 Weeks in Rottenburg am Neckar, Baden-Württemberg, Germany

Now
41 °F

Passing clouds.


Feels Like: 36 °F
Forecast: 39 / 53 °F
Wind: 7 mph from Southwest

Location: Stuttgart-Echterdingen

Current Time: Feb 7, 2016 at 11:30:16 PM

Latest Report: Feb 7, 2016 at 10:20 PM


Visibility: N/A

Pressure: 29.86 "Hg

Humidity: 76%

Dew point: 34 °F

Location of Rottenburg am NeckarLocation

Historic Weather in Rottenburg am Neckar — Graph

°F

Rottenburg am Neckar Temperature Yesterday

Maximum temperature yesterday: 57 °F (at 1:20 PM)
Minimum temperature yesterday: 32 °F (at 4:20 AM)
Average temperature yesterday: 43 °F

High & Low Weather Summary for the Past Weeks

 TemperatureHumidityPressure
High61 °F (Jan 26, 2:20 PM)100% (Jan 23, 9:50 PM)30.60 "Hg (Jan 23, 9:50 PM)
Low25 °F (Jan 24, 4:20 AM)44% (Feb 6, 1:20 PM)29.62 "Hg (Feb 7, 8:50 AM)
Average43 °F82%30.19 "Hg
* Reported Jan 23 9:20 PM — Feb 7 9:50 PM, Rottenburg am Neckar, Weather by CustomWeather, © 2016

Note: Actual official high and low records may vary slightly from our data, if they occured in-between our weather recording intervals... More about our weather records

Advertising

Rottenburg am Neckar Weather History for the Previous 24 Hours

 ConditionsComfort  
Time TempWeatherWind HumidityBarometerVisibility
9:50 PM
Sun, Feb 7
43 °FClear.12 mph71%29.86 "Hg10 mi
9:20 PM43 °FClear.12 mph76%29.83 "Hg10 mi
8:50 PM43 °FPassing clouds.12 mph76%29.83 "HgN/A
8:20 PM43 °FPassing clouds.13 mph76%29.83 "HgN/A
7:50 PM43 °FPassing clouds.10 mph76%29.83 "HgN/A
7:20 PM43 °FPassing clouds.10 mph76%29.83 "HgN/A
6:50 PM43 °FClear.7 mph81%29.80 "Hg10 mi
6:20 PM43 °FPassing clouds.7 mph81%29.80 "HgN/A
5:50 PM45 °FPassing clouds.8 mph76%29.80 "HgN/A
5:20 PM45 °FBroken clouds.7 mph71%29.77 "HgN/A
4:20 PM45 °FLight rain. Broken clouds.9 mph71%29.77 "HgN/A
3:50 PM46 °FLight rain. Broken clouds.8 mph71%29.74 "HgN/A
3:20 PM46 °FBroken clouds.14 mph71%29.74 "HgN/A
2:50 PM46 °FPartly sunny.16 mph71%29.71 "HgN/A
2:20 PM46 °FBroken clouds.3 mph76%29.71 "HgN/A
1:50 PM46 °FBroken clouds.2 mph71%29.68 "HgN/A
1:20 PM46 °FPartly sunny.2 mph71%29.68 "HgN/A
12:50 PM45 °FPartly sunny.1 mph76%29.65 "HgN/A
12:20 PM43 °FPassing clouds.3 mph76%29.65 "HgN/A
11:50 AM41 °FSunny.1 mph81%29.62 "Hg10 mi
11:20 AM39 °FSunny.1 mph87%29.62 "Hg10 mi
10:50 AM39 °FSunny.1 mph87%29.62 "Hg10 mi
10:20 AM37 °FSunny.3 mph93%29.62 "Hg10 mi
9:50 AM36 °FSunny.2 mph87%29.62 "Hg10 mi
9:20 AM36 °FSunny.1 mph87%29.62 "Hg10 mi
8:50 AM36 °FSunny.1 mph87%29.62 "Hg10 mi
8:20 AM34 °FSunny.5 mph100%29.65 "Hg10 mi
7:50 AM34 °FSunny.2 mph93%29.65 "Hg10 mi
7:20 AM34 °FClear.1 mph93%29.65 "Hg10 mi
6:50 AM34 °FClear.2 mph93%29.65 "Hg10 mi
6:20 AM34 °FClear.2 mph93%29.65 "Hg10 mi
5:50 AM34 °FClear.1 mph93%29.65 "Hg10 mi
5:20 AM34 °FClear.2 mph93%29.68 "Hg10 mi
4:50 AM34 °FClear.2 mph87%29.68 "Hg10 mi
4:20 AM36 °FClear.1 mph87%29.68 "Hg10 mi
3:50 AM37 °FClear.2 mph81%29.68 "Hg10 mi
3:20 AM39 °FClear.2 mph75%29.71 "Hg10 mi
2:20 AM41 °FClear.2 mph76%29.74 "Hg10 mi
1:50 AM39 °FClear.5 mph75%29.74 "Hg10 mi
1:20 AM41 °FPassing clouds.5 mph76%29.74 "HgN/A
12:50 AM36 °FClear.3 mph81%29.74 "Hg10 mi
12:20 AM37 °FClear.1 mph81%29.77 "Hg10 mi
11:50 PM
Sat, Feb 6
39 °FClear.1 mph81%29.77 "Hg10 mi
11:20 PM41 °FClear.2 mph76%29.77 "Hg10 mi
Weather by CustomWeather, © 2016

See weather overviewHow to use our weather pages